| time (UTC) | temp F | wind direction | speed knots | gust knots | rain 1hr in | rain 24hr in | rain mn in | humidity % | barometer mb |
| 20260901054537 | 62 | 0 | 0.0 | 0.0 | 0.00 | 0.00 | 0.00 | 97 | 1014.8 |
| 20260901054021 | 62 | 0 | 0.0 | 0.0 | 0.00 | 0.00 | 0.00 | 97 | 1014.8 |
| 20260901053520 | 62 | 0 | 0.0 | 0.0 | 0.00 | 0.00 | 0.00 | 97 | 1014.8 |
| 20260901053049 | 62 | 0 | 0.0 | 0.0 | 0.00 | 0.00 | 0.00 | 97 | 1014.8 |
| 20260901052518 | 63 | 0 | 0.0 | 0.0 | 0.00 | 0.00 | 0.00 | 97 | 1014.8 |
| 20260901052018 | 63 | 0 | 0.0 | 0.0 | 0.00 | 0.00 | 0.00 | 96 | 1014.8 |
| 20260901051552 | 63 | 0 | 0.0 | 0.0 | 0.00 | 0.00 | 0.00 | 97 | 1014.8 |
| 20260901051021 | 64 | 0 | 0.0 | 0.0 | 0.00 | 0.00 | 0.00 | 97 | 1014.9 |
| 20260901050520 | 64 | 0 | 0.0 | 0.0 | 0.00 | 0.00 | 0.00 | 97 | 1014.7 |
| 20260901050034 | 63 | 0 | 0.0 | 0.0 | 0.00 | 0.00 | 0.00 | 97 | 1014.7 |
| 20260901045519 | 63 | 0 | 0.0 | 0.0 | 0.00 | 0.00 | 0.00 | 96 | 1014.6 |
| 20260901045024 | 63 | 0 | 0.0 | 0.0 | 0.00 | 0.00 | 0.00 | 96 | 1014.6 |
| 20260901044537 | 63 | 0 | 0.0 | 0.0 | 0.00 | 0.00 | 0.00 | 96 | 1014.6 |
| 20260901044018 | 63 | 0 | 0.0 | 0.0 | 0.00 | 0.00 | 0.00 | 95 | 1014.6 |
| 20260901043518 | 63 | 0 | 0.0 | 0.0 | 0.00 | 0.00 | 0.00 | 94 | 1014.6 |
| 20260901043040 | 64 | 0 | 0.0 | 0.0 | 0.00 | 0.00 | 0.00 | 96 | 1014.5 |
| 20260901042519 | 64 | 0 | 0.0 | 0.0 | 0.00 | 0.00 | 0.00 | 95 | 1014.5 |
| 20260901042017 | 64 | 0 | 0.0 | 0.0 | 0.00 | 0.00 | 0.00 | 94 | 1014.5 |
| 20260901041551 | 64 | 0 | 0.0 | 0.0 | 0.00 | 0.00 | 0.00 | 95 | 1014.6 |
| 20260901041021 | 64 | 0 | 0.0 | 0.0 | 0.00 | 0.00 | 0.00 | 95 | 1014.6 |
| 20260901040520 | 64 | 0 | 0.0 | 0.0 | 0.00 | 0.00 | 0.00 | 95 | 1014.6 |
| 20260901040036 | 64 | 0 | 0.0 | 0.0 | 0.00 | 0.00 | 0.00 | 95 | 1014.6 |
| 20260901035520 | 64 | 0 | 0.0 | 0.0 | 0.00 | 0.00 | 0.00 | 95 | 1014.5 |
| 20260901035019 | 64 | 0 | 0.0 | 0.0 | 0.00 | 0.00 | 0.00 | 95 | 1014.5 |
| 20260901034535 | 64 | 0 | 0.0 | 0.0 | 0.00 | 0.00 | 0.00 | 94 | 1014.5 |
| 20260901034018 | 64 | 0 | 0.0 | 0.0 | 0.00 | 0.00 | 0.00 | 94 | 1014.5 |
| 20260901033518 | 64 | 0 | 0.0 | 0.0 | 0.00 | 0.00 | 0.00 | 94 | 1014.5 |
| 20260901033036 | 65 | 0 | 0.0 | 0.0 | 0.00 | 0.00 | 0.00 | 93 | 1014.4 |
| 20260901032519 | 65 | 0 | 0.0 | 0.0 | 0.00 | 0.00 | 0.00 | 93 | 1014.5 |
| 20260901032024 | 65 | 0 | 0.0 | 0.0 | 0.00 | 0.00 | 0.00 | 92 | 1014.4 |
| 20260901031551 | 65 | 0 | 0.0 | 0.0 | 0.00 | 0.00 | 0.00 | 92 | 1014.3 |
| 20260901031016 | 65 | 0 | 0.0 | 0.0 | 0.00 | 0.00 | 0.00 | 92 | 1014.4 |
| 20260901030518 | 65 | 0 | 0.0 | 0.0 | 0.00 | 0.00 | 0.00 | 91 | 1014.4 |
| 20260901030035 | 65 | 0 | 0.0 | 0.0 | 0.00 | 0.00 | 0.00 | 89 | 1014.5 |
| 20260901025519 | 66 | 0 | 0.0 | 0.0 | 0.00 | 0.00 | 0.00 | 90 | 1014.4 |
| 20260901025025 | 66 | 0 | 0.0 | 0.0 | 0.00 | 0.00 | 0.00 | 90 | 1014.3 |
| 20260901024536 | 66 | 0 | 0.0 | 0.0 | 0.00 | 0.00 | 0.00 | 89 | 1014.3 |
| 20260901024018 | 66 | 0 | 0.0 | 0.0 | 0.00 | 0.00 | 0.00 | 88 | 1014.3 |
| 20260901023520 | 67 | 0 | 0.0 | 0.0 | 0.00 | 0.00 | 0.00 | 88 | 1014.4 |
| 20260901023039 | 67 | 0 | 0.0 | 0.0 | 0.00 | 0.00 | 0.00 | 88 | 1014.3 |
| 20260901022520 | 67 | 0 | 0.0 | 0.0 | 0.00 | 0.00 | 0.00 | 86 | 1014.3 |
| 20260901022020 | 67 | 0 | 0.0 | 0.0 | 0.00 | 0.00 | 0.00 | 86 | 1014.3 |
| 20260901021536 | 67 | 0 | 0.0 | 0.0 | 0.00 | 0.00 | 0.00 | 85 | 1014.3 |
| 20260901021021 | 67 | 0 | 0.0 | 0.0 | 0.00 | 0.00 | 0.00 | 85 | 1014.2 |
| 20260901020524 | 67 | 0 | 0.0 | 0.0 | 0.00 | 0.00 | 0.00 | 83 | 1014.2 |
| 20260901020036 | 68 | 0 | 0.0 | 0.0 | 0.00 | 0.00 | 0.00 | 83 | 1014.1 |
| 20260901015520 | 68 | 0 | 0.0 | 0.0 | 0.00 | 0.00 | 0.00 | 82 | 1014.2 |
| 20260901015024 | 68 | 0 | 0.0 | 0.0 | 0.00 | 0.00 | 0.00 | 81 | 1014.2 |
| 20260901014544 | 69 | 0 | 0.0 | 0.0 | 0.00 | 0.00 | 0.00 | 81 | 1014.2 |
| 20260901014016 | 69 | 0 | 0.0 | 0.0 | 0.00 | 0.00 | 0.00 | 80 | 1014.2 |
| 20260901013520 | 69 | 0 | 0.0 | 0.0 | 0.00 | 0.00 | 0.00 | 80 | 1014.1 |
| 20260901013035 | 70 | 0 | 0.0 | 0.0 | 0.00 | 0.00 | 0.00 | 81 | 1014.1 |
| 20260901012519 | 70 | 0 | 0.0 | 0.0 | 0.00 | 0.00 | 0.00 | 78 | 1013.9 |
| 20260901012019 | 70 | 0 | 0.0 | 0.0 | 0.00 | 0.00 | 0.00 | 76 | 1013.9 |
| 20260901011533 | 70 | 0 | 0.0 | 0.0 | 0.00 | 0.00 | 0.00 | 76 | 1013.8 |
| 20260901011023 | 71 | 0 | 0.0 | 0.0 | 0.00 | 0.00 | 0.00 | 74 | 1013.8 |
| 20260901010519 | 71 | 0 | 0.0 | 0.0 | 0.00 | 0.00 | 0.00 | 74 | 1013.7 |
| 20260901010034 | 72 | 0 | 0.0 | 0.0 | 0.00 | 0.00 | 0.00 | 73 | 1013.6 |
| 20260901005518 | 72 | 0 | 0.0 | 0.0 | 0.00 | 0.00 | 0.00 | 71 | 1013.7 |
| 20260901005019 | 73 | 0 | 0.0 | 0.0 | 0.00 | 0.00 | 0.00 | 71 | 1013.6 |
| 20260901004537 | 74 | 0 | 0.0 | 0.0 | 0.00 | 0.00 | 0.00 | 71 | 1013.5 |
| 20260901004021 | 75 | 0 | 0.0 | 0.0 | 0.00 | 0.00 | 0.00 | 67 | 1013.4 |
| 20260901003521 | 76 | 0 | 0.0 | 0.0 | 0.00 | 0.00 | 0.00 | 72 | 1013.5 |
| 20260901003035 | 76 | 0 | 0.0 | 0.0 | 0.00 | 0.00 | 0.00 | 69 | 1013.4 |
| 20260901002518 | 76 | 0 | 0.0 | 0.0 | 0.00 | 0.00 | 0.00 | 68 | 1013.4 |
| 20260901002020 | 77 | 0 | 0.0 | 0.0 | 0.00 | 0.00 | 0.00 | 68 | 1013.3 |
| 20260901001546 | 77 | 0 | 0.0 | 0.0 | 0.00 | 0.00 | 0.00 | 65 | 1013.3 |
| 20260901001021 | 78 | 0 | 0.0 | 0.0 | 0.00 | 0.00 | 0.00 | 64 | 1013.3 |
| 20260901000521 | 79 | 0 | 0.0 | 0.0 | 0.00 | 0.00 | 0.00 | 60 | 1013.1 |
| 20260901000036 | 79 | 0 | 0.0 | 0.0 | 0.00 | 0.00 | 0.00 | 66 | 1013.1 |
| 20260831235521 | 80 | 0 | 0.0 | 0.0 | 0.00 | 0.00 | 0.00 | 59 | 1013.1 |
| 20260831235019 | 80 | 0 | 0.0 | 0.0 | 0.00 | 0.00 | 0.00 | 55 | 1013.0 |
| 20260831234538 | 80 | 0 | 0.0 | 0.0 | 0.00 | 0.00 | 0.00 | 54 | 1013.1 |
| 20260831234019 | 81 | 0 | 0.0 | 0.9 | 0.00 | 0.00 | 0.00 | 54 | 1013.1 |
| 20260831233516 | 81 | 0 | 0.0 | 0.9 | 0.00 | 0.00 | 0.00 | 53 | 1013.1 |
| 20260831233037 | 81 | 0 | 0.0 | 0.9 | 0.00 | 0.00 | 0.00 | 53 | 1013.1 |
| 20260831232522 | 82 | 0 | 0.0 | 2.6 | 0.00 | 0.00 | 0.00 | 53 | 1013.1 |
| 20260831232021 | 82 | 0 | 0.0 | 2.6 | 0.00 | 0.00 | 0.00 | 55 | 1013.1 |
| 20260831231535 | 82 | 0 | 0.0 | 1.7 | 0.00 | 0.00 | 0.00 | 53 | 1013.2 |
| 20260831231020 | 83 | 349 | 0.0 | 1.7 | 0.00 | 0.00 | 0.00 | 52 | 1013.1 |
| 20260831230520 | 83 | 0 | 0.0 | 2.6 | 0.00 | 0.00 | 0.00 | 51 | 1013.1 |
| 20260831230036 | 83 | 0 | 0.9 | 3.5 | 0.00 | 0.00 | 0.00 | 50 | 1013.1 |
| 20260831225521 | 83 | 329 | 0.0 | 3.5 | 0.00 | 0.00 | 0.00 | 51 | 1013.0 |
| 20260831225019 | 83 | 0 | 0.0 | 2.6 | 0.00 | 0.00 | 0.00 | 47 | 1012.9 |
| 20260831224534 | 83 | 0 | 0.0 | 1.7 | 0.00 | 0.00 | 0.00 | 53 | 1013.0 |
| 20260831224020 | 83 | 0 | 0.0 | 2.6 | 0.00 | 0.00 | 0.00 | 50 | 1012.9 |
| 20260831223520 | 84 | 0 | 0.0 | 2.6 | 0.00 | 0.00 | 0.00 | 46 | 1013.0 |
| 20260831223033 | 84 | 0 | 0.0 | 2.6 | 0.00 | 0.00 | 0.00 | 49 | 1013.0 |
| 20260831222520 | 84 | 300 | 0.0 | 3.5 | 0.00 | 0.00 | 0.00 | 50 | 1012.9 |
| 20260831222021 | 84 | 0 | 0.9 | 5.2 | 0.00 | 0.00 | 0.00 | 53 | 1012.9 |
| 20260831221537 | 84 | 355 | 0.9 | 5.2 | 0.00 | 0.00 | 0.00 | 52 | 1012.9 |
| 20260831221019 | 84 | 0 | 0.0 | 2.6 | 0.00 | 0.00 | 0.00 | 57 | 1012.9 |
| 20260831220522 | 84 | 311 | 0.0 | 3.5 | 0.00 | 0.00 | 0.00 | 54 | 1012.8 |
| 20260831220035 | 84 | 310 | 0.9 | 3.5 | 0.00 | 0.00 | 0.00 | 57 | 1012.9 |
| 20260831215516 | 84 | 0 | 0.9 | 3.5 | 0.00 | 0.00 | 0.00 | 57 | 1012.9 |
| 20260831215020 | 84 | 349 | 0.0 | 1.7 | 0.00 | 0.00 | 0.00 | 57 | 1012.8 |
| 20260831214534 | 83 | 274 | 0.0 | 2.6 | 0.00 | 0.00 | 0.00 | 59 | 1012.9 |
| 20260831214020 | 83 | 274 | 0.0 | 2.6 | 0.00 | 0.00 | 0.00 | 57 | 1012.7 |
| 20260831213520 | 83 | 257 | 0.9 | 4.3 | 0.00 | 0.00 | 0.00 | 60 | 1012.7 |
| 20260831213034 | 83 | 269 | 0.0 | 4.3 | 0.00 | 0.00 | 0.00 | 65 | 1012.8 |
| 20260831212521 | 83 | 0 | 0.0 | 4.3 | 0.00 | 0.00 | 0.00 | 68 | 1012.7 |
| 20260831212021 | 82 | 0 | 0.0 | 3.5 | 0.00 | 0.00 | 0.00 | 70 | 1012.5 |
| 20260831211535 | 82 | 0 | 0.0 | 4.3 | 0.00 | 0.00 | 0.00 | 70 | 1012.5 |
| 20260831211017 | 82 | 233 | 0.0 | 4.3 | 0.00 | 0.00 | 0.00 | 68 | 1012.5 |
| 20260831210517 | 82 | 0 | 0.9 | 4.3 | 0.00 | 0.00 | 0.00 | 69 | 1012.5 |
| 20260831210038 | 82 | 0 | 0.0 | 4.3 | 0.00 | 0.00 | 0.00 | 70 | 1012.5 |
| 20260831205521 | 82 | 233 | 0.9 | 4.3 | 0.00 | 0.00 | 0.00 | 72 | 1012.5 |
| 20260831205020 | 82 | 0 | 0.9 | 4.3 | 0.00 | 0.00 | 0.00 | 72 | 1012.5 |
| 20260831204535 | 82 | 233 | 1.7 | 4.3 | 0.00 | 0.00 | 0.00 | 72 | 1012.5 |
| 20260831204021 | 82 | 225 | 0.9 | 4.3 | 0.00 | 0.00 | 0.00 | 73 | 1012.5 |
| 20260831203520 | 82 | 0 | 0.0 | 1.7 | 0.00 | 0.00 | 0.00 | 74 | 1012.5 |
| 20260831203035 | 81 | 0 | 0.0 | 1.7 | 0.00 | 0.00 | 0.00 | 75 | 1012.4 |
| 20260831202520 | 81 | 225 | 0.0 | 1.7 | 0.00 | 0.00 | 0.00 | 78 | 1012.5 |
| 20260831202021 | 80 | 0 | 0.0 | 4.3 | 0.00 | 0.00 | 0.00 | 77 | 1012.5 |
| 20260831201545 | 80 | 0 | 0.0 | 6.1 | 0.00 | 0.00 | 0.00 | 79 | 1012.5 |
| 20260831201021 | 80 | 225 | 2.6 | 6.1 | 0.00 | 0.00 | 0.00 | 79 | 1012.4 |
| 20260831200517 | 79 | 223 | 2.6 | 6.1 | 0.00 | 0.00 | 0.00 | 80 | 1012.5 |
| 20260831200036 | 78 | 0 | 0.0 | 3.5 | 0.00 | 0.00 | 0.00 | 83 | 1012.4 |
| 20260831195515 | 78 | 175 | 0.9 | 3.5 | 0.00 | 0.00 | 0.00 | 83 | 1012.4 |
| 20260831195020 | 78 | 0 | 0.0 | 3.5 | 0.00 | 0.00 | 0.00 | 85 | 1012.4 |
| 20260831194535 | 78 | 175 | 1.7 | 3.5 | 0.00 | 0.00 | 0.00 | 85 | 1012.5 |
| 20260831194026 | 77 | 175 | 0.0 | 4.3 | 0.00 | 0.00 | 0.00 | 86 | 1012.5 |
| 20260831193520 | 77 | 175 | 0.9 | 4.3 | 0.00 | 0.00 | 0.00 | 85 | 1012.4 |
| 20260831193032 | 77 | 175 | 1.7 | 4.3 | 0.00 | 0.00 | 0.00 | 86 | 1012.5 |
| 20260831192519 | 77 | 229 | 1.7 | 5.2 | 0.00 | 0.00 | 0.00 | 86 | 1012.5 |
| 20260831192020 | 77 | 229 | 0.9 | 5.2 | 0.00 | 0.00 | 0.00 | 86 | 1012.4 |
| 20260831191536 | 77 | 214 | 0.0 | 3.5 | 0.00 | 0.00 | 0.00 | 86 | 1012.4 |
| 20260831191016 | 77 | 214 | 0.0 | 3.5 | 0.00 | 0.00 | 0.00 | 87 | 1012.4 |
| 20260831190519 | 76 | 214 | 1.7 | 3.5 | 0.00 | 0.00 | 0.00 | 88 | 1012.5 |
| 20260831190036 | 76 | 219 | 0.9 | 5.2 | 0.00 | 0.00 | 0.00 | 87 | 1012.5 |
| 20260831185520 | 76 | 219 | 0.0 | 5.2 | 0.00 | 0.00 | 0.00 | 87 | 1012.6 |
| 20260831185023 | 76 | 0 | 0.0 | 4.3 | 0.00 | 0.00 | 0.00 | 88 | 1012.8 |
| 20260831184536 | 76 | 219 | 1.7 | 4.3 | 0.00 | 0.00 | 0.00 | 87 | 1012.8 |
| 20260831184021 | 76 | 0 | 0.0 | 3.5 | 0.00 | 0.00 | 0.00 | 88 | 1012.7 |
| 20260831183519 | 76 | 0 | 0.9 | 3.5 | 0.00 | 0.00 | 0.00 | 87 | 1012.8 |
| 20260831183035 | 76 | 219 | 0.0 | 3.5 | 0.00 | 0.00 | 0.00 | 88 | 1012.8 |
| 20260831182518 | 76 | 0 | 0.0 | 4.3 | 0.00 | 0.00 | 0.00 | 90 | 1012.7 |
| 20260831182018 | 76 | 0 | 0.0 | 4.3 | 0.00 | 0.00 | 0.00 | 89 | 1012.8 |
| 20260831181533 | 75 | 219 | 1.7 | 3.5 | 0.00 | 0.00 | 0.00 | 89 | 1012.6 |
| 20260831181020 | 75 | 219 | 0.0 | 2.6 | 0.00 | 0.00 | 0.00 | 90 | 1012.6 |
| 20260831180520 | 75 | 0 | 0.0 | 1.7 | 0.00 | 0.00 | 0.00 | 90 | 1012.6 |
| 20260831180037 | 75 | 0 | 0.0 | 4.3 | 0.00 | 0.00 | 0.00 | 91 | 1012.6 |
| 20260831175519 | 74 | 0 | 0.0 | 4.3 | 0.00 | 0.00 | 0.00 | 91 | 1012.8 |
| 20260831175019 | 74 | 219 | 1.7 | 4.3 | 0.00 | 0.00 | 0.00 | 91 | 1012.7 |
| 20260831174535 | 74 | 0 | 0.0 | 0.9 | 0.00 | 0.00 | 0.00 | 92 | 1012.6 |
| 20260831174016 | 74 | 0 | 0.0 | 2.6 | 0.00 | 0.00 | 0.00 | 92 | 1012.7 |
| 20260831173519 | 74 | 0 | 0.0 | 2.6 | 0.00 | 0.00 | 0.00 | 92 | 1012.7 |
| 20260831173034 | 74 | 219 | 0.0 | 2.6 | 0.00 | 0.00 | 0.00 | 93 | 1012.7 |
| 20260831172521 | 73 | 0 | 0.0 | 3.5 | 0.00 | 0.00 | 0.00 | 93 | 1012.8 |
| 20260831172020 | 73 | 219 | 0.9 | 4.3 | 0.00 | 0.00 | 0.00 | 93 | 1012.8 |
| 20260831171534 | 73 | 219 | 0.9 | 4.3 | 0.00 | 0.00 | 0.00 | 93 | 1012.8 |
| 20260831171019 | 73 | 167 | 1.7 | 4.3 | 0.00 | 0.00 | 0.00 | 93 | 1012.7 |
| 20260831170521 | 73 | 167 | 0.0 | 3.5 | 0.00 | 0.00 | 0.00 | 94 | 1012.7 |
| 20260831170039 | 73 | 0 | 0.9 | 3.5 | 0.00 | 0.00 | 0.00 | 94 | 1012.6 |
| 20260831165515 | 73 | 167 | 0.0 | 3.5 | 0.00 | 0.00 | 0.00 | 95 | 1012.6 |
| 20260831165019 | 72 | 167 | 0.0 | 4.3 | 0.00 | 0.00 | 0.00 | 94 | 1012.6 |
| 20260831164536 | 72 | 167 | 1.7 | 4.3 | 0.00 | 0.00 | 0.00 | 95 | 1012.6 |
| 20260831164020 | 72 | 167 | 0.0 | 3.5 | 0.00 | 0.00 | 0.00 | 95 | 1012.6 |
| 20260831163521 | 72 | 0 | 0.0 | 3.5 | 0.00 | 0.00 | 0.00 | 95 | 1012.6 |
| 20260831163035 | 72 | 0 | 1.7 | 3.5 | 0.00 | 0.00 | 0.00 | 95 | 1012.5 |
| 20260831162520 | 72 | 167 | 0.9 | 3.5 | 0.00 | 0.00 | 0.00 | 95 | 1012.5 |
| 20260831162019 | 72 | 0 | 0.0 | 2.6 | 0.00 | 0.00 | 0.00 | 95 | 1012.5 |
| 20260831161537 | 72 | 0 | 0.0 | 3.5 | 0.00 | 0.00 | 0.00 | 95 | 1012.4 |
| 20260831161018 | 72 | 0 | 0.9 | 3.5 | 0.00 | 0.00 | 0.00 | 95 | 1012.3 |
| 20260831160518 | 72 | 167 | 0.0 | 3.5 | 0.00 | 0.00 | 0.00 | 95 | 1012.3 |
| 20260831160050 | 72 | 167 | 0.0 | 3.5 | 0.00 | 0.00 | 0.00 | 95 | 1012.1 |
| 20260831155520 | 72 | 167 | 0.9 | 3.5 | 0.00 | 0.00 | 0.00 | 95 | 1012.2 |
| 20260831155023 | 72 | 0 | 0.0 | 2.6 | 0.00 | 0.00 | 0.00 | 95 | 1012.2 |
| 20260831154600 | 72 | 167 | 0.0 | 4.3 | 0.00 | 0.00 | 0.00 | 95 | 1012.3 |
| 20260831154021 | 72 | 167 | 0.9 | 4.3 | 0.00 | 0.00 | 0.00 | 95 | 1012.1 |
| 20260831153520 | 72 | 167 | 2.6 | 4.3 | 0.00 | 0.00 | 0.00 | 95 | 1012.0 |
| 20260831153034 | 72 | 167 | 0.9 | 5.2 | 0.00 | 0.00 | 0.00 | 95 | 1011.9 |
| 20260831152524 | 71 | 0 | 1.7 | 5.2 | 0.00 | 0.00 | 0.00 | 95 | 1011.8 |
| 20260831152019 | 71 | 180 | 1.7 | 5.2 | 0.00 | 0.00 | 0.00 | 95 | 1011.8 |
| 20260831151537 | 71 | 164 | 1.7 | 4.3 | 0.00 | 0.00 | 0.00 | 95 | 1011.8 |
| 20260831151016 | 71 | 164 | 0.9 | 5.2 | 0.00 | 0.00 | 0.00 | 95 | 1011.7 |
| 20260831150521 | 71 | 164 | 3.5 | 5.2 | 0.00 | 0.00 | 0.00 | 95 | 1011.7 |
| 20260831150035 | 71 | 164 | 1.7 | 5.2 | 0.00 | 0.00 | 0.00 | 95 | 1011.5 |
| 20260831145521 | 71 | 183 | 2.6 | 7.0 | 0.00 | 0.00 | 0.00 | 95 | 1011.5 |
| 20260831145023 | 71 | 184 | 2.6 | 7.0 | 0.00 | 0.00 | 0.00 | 95 | 1011.4 |
| 20260831144534 | 71 | 168 | 2.6 | 5.2 | 0.00 | 0.00 | 0.00 | 95 | 1011.4 |
| 20260831144019 | 71 | 165 | 2.6 | 4.3 | 0.00 | 0.00 | 0.00 | 95 | 1011.3 |
| 20260831143521 | 71 | 167 | 2.6 | 6.1 | 0.00 | 0.00 | 0.00 | 95 | 1011.5 |
| 20260831143040 | 71 | 167 | 2.6 | 6.1 | 0.00 | 0.00 | 0.00 | 95 | 1011.5 |
| 20260831142516 | 71 | 176 | 2.6 | 6.1 | 0.00 | 0.00 | 0.00 | 95 | 1011.6 |
| 20260831142024 | 70 | 161 | 3.5 | 6.1 | 0.00 | 0.00 | 0.00 | 95 | 1011.6 |
| 20260831141538 | 70 | 158 | 1.7 | 7.0 | 0.00 | 0.00 | 0.00 | 95 | 1011.6 |
| 20260831141019 | 70 | 189 | 3.5 | 7.0 | 0.00 | 0.00 | 0.00 | 95 | 1011.6 |
| 20260831140522 | 70 | 172 | 2.6 | 6.1 | 0.00 | 0.00 | 0.00 | 95 | 1011.6 |
| 20260831140040 | 70 | 173 | 2.6 | 5.2 | 0.00 | 0.00 | 0.00 | 95 | 1011.5 |
| 20260831135520 | 70 | 173 | 1.7 | 6.1 | 0.00 | 0.00 | 0.00 | 95 | 1011.3 |
| 20260831135018 | 70 | 173 | 2.6 | 6.1 | 0.00 | 0.00 | 0.00 | 95 | 1011.2 |
| 20260831134535 | 70 | 173 | 0.9 | 6.1 | 0.00 | 0.00 | 0.00 | 95 | 1011.3 |
| 20260831134019 | 70 | 173 | 3.5 | 6.1 | 0.00 | 0.00 | 0.00 | 95 | 1011.3 |
| 20260831133522 | 70 | 173 | 1.7 | 5.2 | 0.00 | 0.00 | 0.00 | 95 | 1011.3 |
| 20260831133034 | 70 | 173 | 1.7 | 6.1 | 0.00 | 0.00 | 0.00 | 95 | 1011.3 |
| 20260831132521 | 70 | 179 | 1.7 | 6.1 | 0.00 | 0.00 | 0.00 | 95 | 1011.4 |
| 20260831132020 | 70 | 173 | 2.6 | 6.1 | 0.00 | 0.00 | 0.00 | 95 | 1011.4 |
| 20260831131533 | 70 | 186 | 2.6 | 6.1 | 0.00 | 0.00 | 0.00 | 95 | 1011.4 |
| 20260831131025 | 70 | 175 | 2.6 | 6.1 | 0.00 | 0.00 | 0.00 | 95 | 1011.2 |
| 20260831130519 | 70 | 158 | 2.6 | 6.1 | 0.00 | 0.00 | 0.00 | 95 | 1011.1 |
| 20260831130037 | 70 | 155 | 2.6 | 6.1 | 0.00 | 0.00 | 0.00 | 96 | 1011.1 |
| 20260831125516 | 69 | 150 | 3.5 | 7.0 | 0.00 | 0.00 | 0.00 | 96 | 1011.0 |
| 20260831125019 | 69 | 159 | 4.3 | 8.7 | 0.00 | 0.00 | 0.00 | 96 | 1010.9 |
| 20260831124533 | 69 | 121 | 3.5 | 8.7 | 0.00 | 0.00 | 0.00 | 96 | 1010.9 |
| 20260831124020 | 69 | 158 | 5.2 | 8.7 | 0.00 | 0.00 | 0.00 | 95 | 1011.1 |
| 20260831123521 | 69 | 148 | 4.3 | 7.0 | 0.00 | 0.00 | 0.00 | 95 | 1011.0 |
| 20260831123033 | 70 | 148 | 2.6 | 6.1 | 0.00 | 0.00 | 0.00 | 95 | 1011.1 |
| 20260831122524 | 70 | 126 | 1.7 | 6.1 | 0.00 | 0.00 | 0.00 | 95 | 1011.1 |
| 20260831122019 | 70 | 152 | 2.6 | 7.0 | 0.00 | 0.00 | 0.00 | 95 | 1011.3 |
| 20260831121533 | 70 | 131 | 2.6 | 7.0 | 0.00 | 0.00 | 0.00 | 95 | 1011.3 |
| 20260831121019 | 70 | 128 | 3.5 | 7.0 | 0.00 | 0.00 | 0.00 | 95 | 1011.2 |
| 20260831120521 | 70 | 146 | 3.5 | 7.0 | 0.00 | 0.00 | 0.00 | 96 | 1011.2 |
| 20260831120035 | 70 | 151 | 2.6 | 7.0 | 0.00 | 0.00 | 0.00 | 96 | 1011.2 |
| 20260831115515 | 70 | 148 | 2.6 | 6.1 | 0.00 | 0.00 | 0.00 | 96 | 1011.2 |
| 20260831115015 | 70 | 154 | 3.5 | 6.1 | 0.00 | 0.00 | 0.00 | 95 | 1011.1 |
| 20260831114546 | 70 | 165 | 2.6 | 7.0 | 0.00 | 0.00 | 0.00 | 95 | 1011.1 |
| 20260831114021 | 70 | 138 | 1.7 | 7.0 | 0.00 | 0.00 | 0.00 | 95 | 1011.0 |
| 20260831113521 | 70 | 146 | 3.5 | 7.0 | 0.00 | 0.00 | 0.00 | 95 | 1010.8 |
| 20260831113037 | 70 | 141 | 3.5 | 7.8 | 0.00 | 0.00 | 0.00 | 95 | 1010.8 |
| 20260831112520 | 70 | 161 | 2.6 | 7.8 | 0.00 | 0.00 | 0.00 | 95 | 1011.1 |
| 20260831112019 | 70 | 153 | 5.2 | 7.8 | 0.00 | 0.00 | 0.00 | 95 | 1010.9 |
| 20260831111538 | 70 | 145 | 4.3 | 7.0 | 0.00 | 0.00 | 0.00 | 95 | 1010.8 |
| 20260831111022 | 70 | 135 | 4.3 | 7.0 | 0.00 | 0.00 | 0.00 | 95 | 1010.8 |
| 20260831110520 | 70 | 127 | 3.5 | 7.0 | 0.00 | 0.00 | 0.00 | 95 | 1011.1 |
| 20260831110040 | 70 | 158 | 4.3 | 7.0 | 0.00 | 0.00 | 0.00 | 95 | 1011.0 |
| 20260831105518 | 70 | 186 | 3.5 | 7.0 | 0.00 | 0.00 | 0.00 | 95 | 1010.9 |
| 20260831105022 | 70 | 146 | 3.5 | 7.0 | 0.00 | 0.00 | 0.00 | 95 | 1010.8 |
| 20260831104539 | 70 | 160 | 3.5 | 7.8 | 0.00 | 0.00 | 0.00 | 95 | 1010.9 |
| 20260831104022 | 70 | 167 | 2.6 | 7.8 | 0.00 | 0.00 | 0.00 | 95 | 1010.9 |
| 20260831103521 | 70 | 139 | 2.6 | 6.1 | 0.00 | 0.00 | 0.00 | 95 | 1011.1 |
| 20260831103039 | 70 | 157 | 2.6 | 7.0 | 0.00 | 0.00 | 0.00 | 95 | 1011.1 |
| 20260831102519 | 70 | 153 | 2.6 | 7.8 | 0.00 | 0.00 | 0.00 | 95 | 1011.0 |
| 20260831102022 | 70 | 151 | 3.5 | 9.6 | 0.00 | 0.00 | 0.00 | 95 | 1011.0 |
| 20260831101544 | 70 | 149 | 4.3 | 9.6 | 0.00 | 0.00 | 0.00 | 95 | 1010.9 |
| 20260831101019 | 70 | 132 | 3.5 | 7.8 | 0.00 | 0.00 | 0.00 | 95 | 1010.9 |
| 20260831100516 | 70 | 143 | 3.5 | 7.8 | 0.00 | 0.00 | 0.00 | 95 | 1011.1 |
| 20260831100036 | 70 | 143 | 4.3 | 7.8 | 0.00 | 0.00 | 0.00 | 95 | 1011.1 |
| 20260831095520 | 70 | 137 | 5.2 | 8.7 | 0.00 | 0.00 | 0.00 | 95 | 1011.1 |
| 20260831095025 | 70 | 144 | 4.3 | 8.7 | 0.00 | 0.00 | 0.00 | 95 | 1011.0 |
| 20260831094540 | 70 | 156 | 5.2 | 8.7 | 0.00 | 0.00 | 0.00 | 95 | 1011.1 |
| 20260831094022 | 70 | 148 | 5.2 | 8.7 | 0.00 | 0.00 | 0.00 | 95 | 1011.2 |
| 20260831093523 | 70 | 119 | 3.5 | 10.4 | 0.00 | 0.00 | 0.00 | 95 | 1011.1 |
| 20260831093038 | 70 | 144 | 5.2 | 10.4 | 0.00 | 0.00 | 0.00 | 94 | 1011.2 |
| 20260831092519 | 70 | 152 | 5.2 | 10.4 | 0.00 | 0.00 | 0.00 | 95 | 1011.2 |
| 20260831092018 | 70 | 161 | 4.3 | 10.4 | 0.00 | 0.00 | 0.00 | 95 | 1011.1 |
| 20260831091545 | 70 | 138 | 5.2 | 10.4 | 0.00 | 0.00 | 0.00 | 94 | 1011.2 |
| 20260831091019 | 70 | 161 | 4.3 | 7.8 | 0.00 | 0.00 | 0.00 | 94 | 1011.2 |
| 20260831090518 | 70 | 155 | 3.5 | 8.7 | 0.00 | 0.00 | 0.00 | 95 | 1011.4 |
| 20260831090036 | 70 | 133 | 3.5 | 8.7 | 0.00 | 0.00 | 0.00 | 94 | 1011.3 |
| 20260831085522 | 70 | 96 | 3.5 | 8.7 | 0.00 | 0.00 | 0.00 | 94 | 1011.2 |
| 20260831085020 | 71 | 135 | 4.3 | 10.4 | 0.00 | 0.00 | 0.00 | 94 | 1011.2 |
| 20260831084536 | 70 | 142 | 5.2 | 10.4 | 0.00 | 0.00 | 0.00 | 95 | 1011.2 |
| 20260831084021 | 70 | 155 | 3.5 | 7.8 | 0.00 | 0.00 | 0.00 | 95 | 1011.2 |
| 20260831083519 | 70 | 148 | 2.6 | 7.8 | 0.00 | 0.00 | 0.00 | 95 | 1011.1 |
| 20260831083035 | 70 | 159 | 3.5 | 7.8 | 0.00 | 0.00 | 0.00 | 96 | 1011.2 |
| 20260831082516 | 70 | 130 | 2.6 | 7.8 | 0.00 | 0.00 | 0.00 | 96 | 1011.1 |
| 20260831082019 | 70 | 137 | 3.5 | 7.8 | 0.00 | 0.00 | 0.00 | 96 | 1011.2 |
| 20260831081538 | 70 | 156 | 3.5 | 7.0 | 0.00 | 0.00 | 0.00 | 96 | 1011.1 |
| 20260831081018 | 70 | 128 | 3.5 | 7.0 | 0.00 | 0.00 | 0.00 | 96 | 1011.1 |
| 20260831080523 | 70 | 155 | 1.7 | 7.0 | 0.00 | 0.00 | 0.00 | 96 | 1011.2 |
| 20260831080036 | 70 | 140 | 1.7 | 7.0 | 0.00 | 0.00 | 0.00 | 96 | 1011.2 |
| 20260831075519 | 70 | 154 | 2.6 | 6.1 | 0.00 | 0.00 | 0.00 | 96 | 1011.2 |
| 20260831075020 | 70 | 130 | 1.7 | 6.1 | 0.00 | 0.00 | 0.00 | 96 | 1011.4 |
| 20260831074534 | 70 | 148 | 2.6 | 6.1 | 0.00 | 0.00 | 0.00 | 96 | 1011.5 |
| 20260831074020 | 70 | 148 | 2.6 | 6.1 | 0.00 | 0.00 | 0.00 | 96 | 1011.5 |
| 20260831073518 | 70 | 125 | 2.6 | 6.1 | 0.00 | 0.00 | 0.00 | 96 | 1011.5 |
| 20260831073035 | 70 | 154 | 2.6 | 6.1 | 0.00 | 0.00 | 0.00 | 96 | 1011.6 |
| 20260831072516 | 70 | 132 | 3.5 | 6.1 | 0.00 | 0.00 | 0.00 | 96 | 1011.6 |
| 20260831072018 | 70 | 147 | 2.6 | 6.1 | 0.00 | 0.00 | 0.00 | 97 | 1011.9 |
| 20260831071539 | 70 | 137 | 1.7 | 6.1 | 0.00 | 0.00 | 0.00 | 97 | 1011.8 |
| 20260831071021 | 70 | 132 | 2.6 | 6.1 | 0.00 | 0.00 | 0.00 | 97 | 1011.8 |
| 20260831070521 | 70 | 119 | 1.7 | 6.1 | 0.00 | 0.00 | 0.00 | 97 | 1011.9 |
| 20260831070040 | 70 | 82 | 1.7 | 6.1 | 0.00 | 0.00 | 0.00 | 97 | 1012.0 |
| 20260831065520 | 70 | 141 | 2.6 | 6.1 | 0.00 | 0.00 | 0.00 | 97 | 1012.2 |
| 20260831065022 | 70 | 157 | 0.9 | 5.2 | 0.00 | 0.00 | 0.00 | 97 | 1012.2 |
| 20260831064536 | 70 | 155 | 0.9 | 5.2 | 0.00 | 0.00 | 0.00 | 97 | 1012.2 |
| 20260831064018 | 70 | 155 | 1.7 | 5.2 | 0.00 | 0.00 | 0.00 | 97 | 1012.3 |
| 20260831063519 | 70 | 155 | 1.7 | 5.2 | 0.00 | 0.00 | 0.00 | 97 | 1012.4 |
| 20260831063037 | 70 | 157 | 1.7 | 6.1 | 0.00 | 0.00 | 0.00 | 97 | 1012.4 |
| 20260831062518 | 70 | 157 | 3.5 | 6.1 | 0.00 | 0.00 | 0.00 | 97 | 1012.4 |
| 20260831062023 | 69 | 136 | 2.6 | 5.2 | 0.00 | 0.00 | 0.00 | 97 | 1012.4 |
| 20260831061536 | 69 | 179 | 1.7 | 4.3 | 0.00 | 0.00 | 0.00 | 97 | 1012.4 |
| 20260831061021 | 69 | 136 | 0.9 | 5.2 | 0.00 | 0.00 | 0.00 | 97 | 1012.5 |
| 20260831060523 | 69 | 0 | 0.9 | 6.1 | 0.00 | 0.00 | 0.00 | 97 | 1012.5 |
| 20260831060036 | 69 | 144 | 1.7 | 7.0 | 0.00 | 0.00 | 0.00 | 97 | 1012.6 |
| 20260831055523 | 69 | 131 | 2.6 | 7.0 | 0.00 | 0.00 | 0.00 | 97 | 1012.5 |
| 20260831055024 | 69 | 159 | 3.5 | 7.0 | 0.00 | 0.00 | 0.00 | 97 | 1012.5 |